TimeMST,TemperatureF,Dew PointF,Humidity,Sea Level PressureIn,VisibilityMPH,Wind Direction,Wind SpeedMPH,Gust SpeedMPH,PrecipitationIn,Events,Conditions,WindDirDegrees,DateUTC
12:14 AM,16.7,12.4,83,30.22,10.0,West,6.9,-,N/A,,Clear,270,2013-01-21 07:14:00
12:34 AM,16.2,12.2,84,30.21,10.0,West,4.6,-,N/A,,Clear,260,2013-01-21 07:34:00
12:54 AM,16.3,12.7,86,30.20,10.0,West,4.6,-,N/A,,Clear,260,2013-01-21 07:54:00
1:14 AM,17.1,13.8,87,30.20,10.0,West,3.5,-,N/A,,Clear,270,2013-01-21 08:14:00
1:34 AM,15.4,13.3,91,30.20,10.0,West,4.6,-,N/A,,Clear,280,2013-01-21 08:34:00
1:54 AM,14.5,11.8,89,30.19,10.0,WNW,6.9,-,N/A,,Clear,300,2013-01-21 08:54:00
2:14 AM,15.8,13.6,91,30.19,10.0,WNW,3.5,-,N/A,,Clear,300,2013-01-21 09:14:00
2:34 AM,14.9,12.4,90,30.18,10.0,North,3.5,-,N/A,,Clear,360,2013-01-21 09:34:00
2:54 AM,14.7,12.4,90,30.18,10.0,Calm,Calm,-,N/A,,Clear,0,2013-01-21 09:54:00
3:14 AM,15.3,13.5,93,30.17,10.0,Calm,Calm,-,N/A,,Clear,0,2013-01-21 10:14:00
3:54 AM,16.0,10.0,77,30.16,10.0,North,3.5,-,N/A,,Clear,10,2013-01-21 10:54:00
4:14 AM,17.4,10.0,73,30.16,10.0,Calm,Calm,-,N/A,,Clear,0,2013-01-21 11:14:00
4:34 AM,16.7,10.2,76,30.17,10.0,Calm,Calm,-,N/A,,Clear,0,2013-01-21 11:34:00
4:54 AM,21.7,9.9,60,30.16,10.0,Calm,Calm,-,N/A,,Clear,0,2013-01-21 11:54:00
5:14 AM,22.1,11.3,63,30.17,10.0,Calm,Calm,-,N/A,,Clear,0,2013-01-21 12:14:00
5:34 AM,23.5,8.2,52,30.17,10.0,North,4.6,-,N/A,,Clear,350,2013-01-21 12:34:00
5:54 AM,24.4,7.3,48,30.17,10.0,North,5.8,16.1,N/A,,Clear,360,2013-01-21 12:54:00
6:14 AM,26.2,7.7,46,30.17,10.0,North,5.8,-,N/A,,Clear,360,2013-01-21 13:14:00
6:34 AM,27.3,7.7,44,30.18,10.0,North,9.2,-,N/A,,Clear,350,2013-01-21 13:34:00
6:54 AM,27.0,7.5,44,30.18,10.0,North,6.9,-,N/A,,Clear,360,2013-01-21 13:54:00
7:14 AM,25.7,7.0,45,30.18,10.0,NNW,4.6,-,N/A,,Clear,340,2013-01-21 14:14:00
7:34 AM,26.8,7.5,44,30.18,10.0,North,4.6,-,N/A,,Clear,350,2013-01-21 14:34:00
7:54 AM,27.3,8.6,45,30.19,10.0,NNW,3.5,-,N/A,,Clear,340,2013-01-21 14:54:00
8:14 AM,28.4,12.0,50,30.20,10.0,Calm,Calm,-,N/A,,Clear,0,2013-01-21 15:14:00
8:34 AM,33.1,10.2,39,30.20,10.0,Calm,Calm,-,N/A,,Clear,0,2013-01-21 15:34:00
8:54 AM,35.8,7.9,31,30.19,10.0,East,3.5,-,N/A,,Clear,90,2013-01-21 15:54:00
9:14 AM,37.8,7.3,28,30.20,10.0,South,6.9,-,N/A,,Clear,170,2013-01-21 16:14:00
9:34 AM,38.5,6.8,27,30.19,10.0,South,11.5,-,N/A,,Clear,190,2013-01-21 16:34:00
9:54 AM,39.7,7.2,26,30.19,10.0,South,6.9,16.1,N/A,,Clear,170,2013-01-21 16:54:00
10:14 AM,40.5,6.4,25,30.20,10.0,South,9.2,-,N/A,,Clear,190,2013-01-21 17:14:00
10:34 AM,41.2,6.3,24,30.20,10.0,SSW,9.2,18.4,N/A,,Clear,200,2013-01-21 17:34:00
10:54 AM,42.8,6.1,22,30.20,10.0,South,8.1,-,N/A,,Clear,190,2013-01-21 17:54:00
11:14 AM,43.5,5.5,21,30.19,10.0,SSW,6.9,-,N/A,,Clear,210,2013-01-21 18:14:00
11:34 AM,43.9,5.9,21,30.18,10.0,South,11.5,17.3,N/A,,Clear,190,2013-01-21 18:34:00
11:54 AM,44.8,5.9,20,30.16,10.0,SSW,8.1,-,N/A,,Clear,200,2013-01-21 18:54:00
12:14 PM,46.0,5.7,19,30.16,10.0,SSE,6.9,-,N/A,,Clear,150,2013-01-21 19:14:00
12:34 PM,46.4,5.7,19,30.15,10.0,SSE,9.2,-,N/A,,Clear,160,2013-01-21 19:34:00
12:54 PM,46.9,5.7,19,30.14,10.0,SSE,6.9,-,N/A,,Clear,160,2013-01-21 19:54:00
1:14 PM,47.3,5.5,18,30.13,10.0,SSE,8.1,17.3,N/A,,Clear,150,2013-01-21 20:14:00
1:34 PM,47.7,5.4,18,30.12,10.0,SSE,9.2,-,N/A,,Clear,150,2013-01-21 20:34:00
1:54 PM,48.4,5.5,17,30.12,10.0,SE,4.6,-,N/A,,Clear,140,2013-01-21 20:54:00
2:14 PM,49.1,5.4,17,30.12,10.0,SE,6.9,-,N/A,,Clear,130,2013-01-21 21:14:00
2:34 PM,48.6,5.2,17,30.13,10.0,Calm,Calm,-,N/A,,Clear,0,2013-01-21 21:34:00
2:54 PM,48.9,5.2,17,30.13,10.0,SE,8.1,-,N/A,,Clear,140,2013-01-21 21:54:00
3:14 PM,49.3,5.5,17,30.13,10.0,SSW,3.5,-,N/A,,Clear,210,2013-01-21 22:14:00
3:34 PM,48.7,5.5,17,30.12,10.0,SSW,4.6,-,N/A,,Clear,200,2013-01-21 22:34:00
3:54 PM,47.8,5.7,18,30.12,10.0,SSW,6.9,-,N/A,,Clear,200,2013-01-21 22:54:00
4:14 PM,47.1,5.7,18,30.12,10.0,SSW,5.8,-,N/A,,Clear,210,2013-01-21 23:14:00
4:34 PM,44.2,5.7,21,30.12,10.0,SSW,5.8,-,N/A,,Clear,210,2013-01-21 23:34:00
4:54 PM,40.6,5.2,23,30.11,10.0,SW,5.8,-,N/A,,Clear,230,2013-01-21 23:54:00
5:14 PM,37.4,5.7,27,30.12,10.0,WSW,5.8,-,N/A,,Clear,240,2013-01-22 00:14:00
5:34 PM,37.4,6.8,28,30.12,10.0,WSW,3.5,-,N/A,,Clear,240,2013-01-22 00:34:00
5:54 PM,32.5,6.4,33,30.12,10.0,West,8.1,-,N/A,,Clear,260,2013-01-22 00:54:00
6:14 PM,31.1,6.6,36,30.12,10.0,WNW,9.2,-,N/A,,Clear,290,2013-01-22 01:14:00
6:34 PM,31.1,6.8,36,30.12,10.0,West,9.2,-,N/A,,Clear,280,2013-01-22 01:34:00
6:54 PM,31.6,6.4,35,30.12,10.0,WNW,9.2,-,N/A,,Clear,300,2013-01-22 01:54:00
7:14 PM,32.0,6.6,34,30.12,10.0,WNW,9.2,-,N/A,,Clear,290,2013-01-22 02:14:00
7:34 PM,30.9,6.6,36,30.12,10.0,WNW,10.4,-,N/A,,Clear,290,2013-01-22 02:34:00
7:54 PM,30.9,6.3,35,30.11,10.0,WNW,9.2,-,N/A,,Clear,300,2013-01-22 02:54:00
8:14 PM,30.4,5.9,36,30.11,10.0,WNW,9.2,-,N/A,,Clear,290,2013-01-22 03:14:00
8:34 PM,30.9,5.7,35,30.11,10.0,WNW,8.1,-,N/A,,Clear,290,2013-01-22 03:34:00
8:54 PM,32.2,2.1,28,30.12,10.0,WNW,9.2,-,N/A,,Clear,300,2013-01-22 03:54:00
9:34 PM,31.6,-0.8,25,30.13,10.0,NW,11.5,-,N/A,,Clear,310,2013-01-22 04:34:00
9:54 PM,29.8,-2.9,24,30.13,10.0,WNW,5.8,-,N/A,,Clear,300,2013-01-22 04:54:00
10:14 PM,30.6,-3.1,23,30.13,10.0,WNW,10.4,-,N/A,,Clear,300,2013-01-22 05:14:00
10:34 PM,36.3,-6.0,16,30.13,10.0,WNW,11.5,-,N/A,,Clear,300,2013-01-22 05:34:00
10:54 PM,37.2,-7.4,15,30.13,10.0,NW,11.5,-,N/A,,Clear,310,2013-01-22 05:54:00
11:14 PM,35.8,-7.6,15,30.13,10.0,WNW,11.5,-,N/A,,Clear,300,2013-01-22 06:14:00
11:34 PM,36.5,-8.0,15,30.13,10.0,WNW,11.5,-,N/A,,Clear,300,2013-01-22 06:34:00
11:54 PM,34.0,-8.5,16,30.13,10.0,WNW,9.2,-,N/A,,Clear,300,2013-01-22 06:54:00